This is the latest recevied weather packets stored in our database for station/object W4SNA-3. If no packets are shown the sender has not sent any weather packets the latest 10 day(s).
| Time | Temp. | Humidity | Pressure | Rain* | Wind** | Luminosity | Snow |
|---|---|---|---|---|---|---|---|
| 1777827031 | 13.89° C | 32% | 1016.1 hPa | 0 mm | - | - | - |
| 1777826729 | 13.89° C | 32% | 1016.1 hPa | 0 mm | - | - | - |
| 1777826429 | 13.89° C | 33% | 1016.3 hPa | 0 mm | - | - | - |
| 1777826129 | 13.89° C | 33% | 1016.4 hPa | 0 mm | - | - | - |
| 1777825829 | 13.89° C | 31% | 1016.7 hPa | 0 mm | - | - | - |
| 1777825529 | 13.33° C | 32% | 1016.8 hPa | 0 mm | - | - | - |
| 1777825229 | 13.33° C | 35% | 1016.6 hPa | 0 mm | - | - | - |
| 1777824931 | 13.33° C | 33% | 1016.6 hPa | 0 mm | - | - | - |
| 1777824632 | 13.33° C | 32% | 1016.8 hPa | 0 mm | - | - | - |
| 1777824334 | 13.33° C | 34% | 1016.7 hPa | 0 mm | - | - | - |
| 1777824029 | 13.33° C | 35% | 1016.7 hPa | 0 mm | - | - | - |
| 1777823733 | 13.33° C | 34% | 1016.5 hPa | 0 mm | - | - | - |
| 1777823431 | 12.78° C | 31% | 1016.7 hPa | 0 mm | - | - | - |
| 1777823130 | 12.78° C | 35% | 1016.7 hPa | 0 mm | - | - | - |
| 1777822833 | 12.22° C | 34% | 1016.6 hPa | 0 mm | - | - | - |
| 1777822531 | 12.22° C | 35% | 1016.7 hPa | 0 mm | - | - | - |
| 1777822235 | 11.67° C | 34% | 1016.5 hPa | 0 mm | - | - | - |
| 1777821932 | 11.67° C | 34% | 1016.5 hPa | 0 mm | - | - | - |
| 1777821629 | 11.67° C | 36% | 1016.5 hPa | 0 mm | - | - | - |
| 1777821329 | 11.67° C | 38% | 1016.5 hPa | 0 mm | - | - | - |
| 1777821029 | 11.11° C | 37% | 1016.4 hPa | 0 mm | - | - | - |
| 1777820732 | 11.11° C | 41% | 1016.5 hPa | 0 mm | - | - | - |
| 1777820429 | 11.11° C | 40% | 1016.5 hPa | 0 mm | - | - | - |
| 1777819840 | 10° C | 43% | 1016.5 hPa | 0 mm | - | - | - |
| 1777819540 | 10° C | 41% | 1016.3 hPa | 0 mm | - | - | - |
* Rain latest hour (hover to see other rain measurements)
** Current wind speed in m/s (hover to see current wind gust speed)